DECAYED

METEOR 2-5 DEB, 28554 (Decayed)

Orbit data source: Space-Track

METEOR 2-5 DEB, 28554 was space debris in LEO originally from a launch on Wed, 31 Oct 1979 UTC launched from the Plesetsk Missile And Space Complex (PKMTR). Debris objects in space refer to the collection of defunct objects orbiting the Earth. Examples of debris include non-operational satellites, rocket bodies, and fragments generated from explosions, collisions, or faulty payload assembly.

Not visible in the next 10 days
Identifier
28554, 1979-095C
Orbit
Decayed
Country
Flag of CISCIS
Related business
Manufacturer
Unknown
Mission
Decayed spacecraft
Bus & Motor
Unknown
Mass
Unknown
Launch date (UTC)
1979-10-31 (47 years ago)
Launch vehicle
Unknown
Launch site
Plesetsk Missile And Space Complex (PKMTR)
Object type
Payload
Rocket body
Debris
Shape & HBR
Unknown shape, 0.1 m
Radar Cross Section
Small (<0.1 m²)

Expand to show TLE details & history
Last TLE update: 1 year ago

TLE from 1 year ago
0 METEOR 2-5 DEB
1 28554U 79095C   25014.43858491  .00103829  00000-0  82290-2 0  9994
2 28554  81.1756  75.0108 0015688 178.3603 181.7672 14.99943006537227
Epoch: 2025-01-14T10:31Z
TLE epoch observation values (Epoch: 2025-01-14T10:31:33.736Z)
Latitude
0.00005°
Longitude
162.97497°
Altitude
580.984 km
Speed
7.564 km/s
True Right ascension
05h 00m 02s
True Declination
0° 00' 00"
Sunlit
Object was in full shadow at epoch
Visualization orbit readout
Latitude
Unknown
Longitude
Unknown
Altitude
Unknown
Speed
Unknown
Apparent Right ascension
Unknown
Apparent Declination
Unknown
Sunlit
N/A
Visualization observer readout
Local Sidereal Time
13:16:12
Azimuth
Unknown
Elevation
Unknown
Doppler factor
Unknown
Orbital elements
Apogee altitude
575.022 km
Perigee altitude
553.24 km
Semi-major axis
6,942.268 km
Eccentricity
0.00157
Inclination
81.1756°
RAAN
75.0108°
Arg. of periapsis
178.3603°
True anomaly
181.76167°
Mean anomaly
181.7672°
Eccentric anomaly
181.76443°
Mean motion
3.75224 °/min
Orbital period
95.94 mins
BSTAR
0.008229
Loading maneuver chart data...
Computing Atmospheric mass density...

Documentation

Showing up to 5 results
|